DW9227 Weather Reports


Display with metric or nautical units.
time (UTC)temp
F
wind
direction
speed
MPH
gust
MPH
rain 1hr
in
rain 24hr
in
rain mn
in
humidity
%
barometer
mb
20260503211548 60 82 0.0 0.0 0.00 0.00 0.00 68 1018.3
20260503210049 61 82 0.0 0.0 0.00 0.00 0.00 68 1018.2
20260503204547 61 82 0.0 0.0 0.00 0.00 0.00 66 1018.2
20260503203055 62 82 0.0 0.0 0.00 0.00 0.00 64 1018.2
20260503201550 63 82 0.0 0.0 0.00 0.00 0.00 62 1018.1
20260503200053 64 82 0.0 0.0 0.00 0.00 0.00 61 1017.9
20260503194555 64 82 0.0 0.0 0.00 0.00 0.00 60 1017.7
20260503193045 64 82 0.0 2.0 0.00 0.00 0.00 60 1017.7
20260503191546 64 81 0.0 0.0 0.00 0.00 0.00 60 1017.6
20260503190048 65 81 0.0 0.0 0.00 0.00 0.00 57 1017.3
20260503184541 66 81 0.0 0.0 0.00 0.00 0.00 55 1017.2
20260503183041 66 81 0.0 0.0 0.00 0.00 0.00 53 1017.1
20260503181542 67 81 0.0 0.0 0.00 0.00 0.00 52 1017.0
20260503180055 67 81 0.0 5.0 0.00 0.00 0.00 51 1017.0
20260503174539 68 84 0.0 1.0 0.00 0.00 0.00 51 1017.0
20260503173040 68 84 0.0 2.0 0.00 0.00 0.00 52 1017.0
20260503171545 68 84 0.0 0.0 0.00 0.00 0.00 53 1017.1
20260503081544 63 267 0.0 0.0 0.00 0.00 0.00 57 1019.5
20260503071536 60 130 0.0 5.0 0.00 0.00 0.00 62 1020.1
20260503054526 55 130 0.0 0.0 0.00 0.00 0.00 71 1020.6
20260503053023 54 130 0.0 0.0 0.00 0.00 0.00 74 1020.6
20260503051521 54 130 0.0 0.0 0.00 0.00 0.00 74 1020.5
20260503050033 53 130 0.0 0.0 0.00 0.00 0.00 74 1020.5
20260503044521 53 130 0.0 0.0 0.00 0.00 0.00 75 1020.5
20260503043019 53 130 0.0 0.0 0.00 0.00 0.00 74 1020.5
20260503041525 53 130 0.0 0.0 0.00 0.00 0.00 74 1020.5
20260503040017 54 130 0.0 0.0 0.00 0.00 0.00 73 1020.6
20260503034516 53 130 0.0 0.0 0.00 0.00 0.00 75 1020.6
20260503033016 53 130 0.0 0.0 0.00 0.00 0.00 75 1020.7
20260503031514 53 130 0.0 0.0 0.00 0.00 0.00 75 1020.7
20260503030015 53 130 0.0 0.0 0.00 0.00 0.00 75 1020.8
20260503024512 54 130 0.0 0.0 0.00 0.00 0.00 75 1020.8
20260503023010 54 130 0.0 0.0 0.00 0.00 0.00 75 1020.8
20260503021518 54 130 0.0 0.0 0.00 0.00 0.00 74 1020.8
20260503020008 54 130 0.0 0.0 0.00 0.00 0.00 74 1020.8
20260503014504 54 130 0.0 0.0 0.00 0.00 0.00 73 1020.9
20260503013004 55 130 0.0 0.0 0.00 0.00 0.00 73 1020.9
20260503011502 55 130 0.0 0.0 0.00 0.00 0.00 73 1021.0
20260503010100 55 130 0.0 0.0 0.00 0.00 0.00 73 1021.0
20260503004602 55 130 0.0 0.0 0.00 0.00 0.00 72 1021.1
20260503003057 56 130 0.0 0.0 0.00 0.00 0.00 72 1021.3
20260503001606 56 130 0.0 0.0 0.00 0.00 0.00 72 1021.4
20260503000054 56 130 0.0 0.0 0.00 0.00 0.00 71 1021.5
20260502234554 56 130 0.0 0.0 0.00 0.00 0.00 71 1021.5
20260502233054 56 130 0.0 0.0 0.00 0.00 0.00 71 1021.5
20260502231550 57 130 0.0 0.0 0.00 0.00 0.00 71 1021.6
20260502230047 57 130 0.0 0.0 0.00 0.00 0.00 71 1021.7
20260502224545 57 130 0.0 0.0 0.00 0.00 0.00 70 1021.8
20260502223044 58 130 0.0 0.0 0.00 0.00 0.00 68 1021.8
20260502221543 58 130 0.0 0.0 0.00 0.00 0.00 68 1021.8
20260502220040 59 130 0.0 0.0 0.00 0.00 0.00 68 1021.9
20260502214538 59 130 0.0 0.0 0.00 0.00 0.00 66 1021.8
20260502213038 60 130 0.0 0.0 0.00 0.00 0.00 63 1021.9